Date String (YYYY-MM-DD hh:mm:ss) UTC,Instrument flags,absolute air pressure of the measurement (hPa),sample flow rate (lpm),inlet stack bypass flow (lpm),air temperature of the measurement (°C),ambient temperature measured by the external sensor (°C),aerosol sample conditioner tube jacket temperature (°C),OPC LED temperature (°C),internal box temperature (°C),relative humidity of the measurement (%),span deviation,mass concentration of particles derived from Lorenz-Mie calculation of OPC scattering (μg/m³),mass concentration of particles derived from Lorenz-Mie calculation of OPC scattering (μg/m³),mass concentration of particles derived from Lorenz-Mie calculation of OPC scattering (μg/m³)
DateTimeUTC,F1_M11,P_M11,Q1_M11,Q2_M11,T1_M11,T2_M11,T3_M11,T4_M11,T5_M11,U1_M11,ZSPAN_M11,X0_M11,X2_M11,X1_M11
2024-03-05 06:00:00,SystemResetWarning,0825.5,4.99,000.00,020.1,019.3,000.0,028.7,021.9,16.9,0000.0,0011.48,0003.84,0003.18
2024-03-05 06:01:00,SystemResetWarning,0825.4,5.01,000.00,020.1,019.3,000.0,028.7,021.9,16.9,0000.0,0011.93,0003.82,0003.17
2024-03-05 06:02:00,SystemResetWarning,0825.4,5.01,000.00,020.1,019.3,000.0,028.7,021.9,16.9,0000.0,0012.14,0003.83,0003.17
2024-03-05 06:03:00,SystemResetWarning,0825.4,5.00,000.00,020.1,019.3,000.0,028.7,022.0,16.9,0000.0,0011.66,0003.81,0003.16
2024-03-05 06:04:00,SystemResetWarning,0825.4,4.99,000.00,020.1,019.3,000.0,028.7,022.0,16.9,0000.0,0011.50,0003.73,0003.15
2024-03-05 06:05:00,SystemResetWarning,0825.6,4.99,000.00,020.1,019.3,000.0,028.7,022.0,16.9,0000.0,0011.62,0003.69,0003.14
2024-03-05 06:06:00,SystemResetWarning,0825.6,4.99,000.00,020.1,019.3,000.0,028.7,022.0,16.9,0000.0,0012.09,0003.65,0003.11
2024-03-05 06:07:00,SystemResetWarning,0825.6,5.00,000.00,020.1,019.3,000.0,028.7,021.9,16.9,0000.0,0013.22,0003.63,0003.05
2024-03-05 06:08:00,SystemResetWarning,0825.6,5.01,000.00,020.1,019.3,000.0,028.7,021.9,16.9,0000.0,0013.04,0003.61,0002.99
2024-03-05 06:09:00,SystemResetWarning,0825.6,5.01,000.00,020.1,019.3,000.0,028.7,021.9,16.9,0000.0,0012.73,0003.57,0002.95
2024-03-05 06:10:00,SystemResetWarning,0825.5,5.00,000.00,020.1,019.3,000.0,028.7,021.8,16.9,0000.0,0012.87,0003.54,0002.90
2024-03-05 06:11:00,SystemResetWarning,0825.6,4.99,000.00,020.1,019.3,000.0,028.7,021.9,16.9,0000.0,0012.64,0003.50,0002.83
2024-03-05 06:12:00,SystemResetWarning,0825.7,4.99,000.00,020.1,019.3,000.0,028.7,021.9,16.9,0000.0,0012.00,0003.46,0002.79
2024-03-05 06:13:00,SystemResetWarning,0825.8,5.00,000.00,020.1,019.3,000.0,028.7,021.9,16.9,0000.0,0011.74,0003.42,0002.76
2024-03-05 06:14:00,SystemResetWarning,0825.8,5.00,000.00,020.1,019.3,000.0,028.6,021.9,17.0,0000.0,0011.72,0003.41,0002.75
2024-03-05 06:15:00,SystemResetWarning,0825.9,5.01,000.00,020.1,019.3,000.0,028.6,021.9,17.0,0000.0,0011.96,0003.49,0002.75
2024-03-05 06:16:00,SystemResetWarning,0825.9,5.01,000.00,020.1,019.3,000.0,028.6,021.9,17.0,0000.0,0010.40,0003.48,0002.74
2024-03-05 06:17:00,SystemResetWarning,0825.9,5.00,000.00,020.1,019.3,000.0,028.6,021.9,17.0,0000.0,0009.69,0003.48,0002.74
2024-03-05 06:18:00,SystemResetWarning,0825.9,4.99,000.00,020.1,019.3,000.0,028.6,021.9,17.0,0000.0,0009.34,0003.47,0002.74
2024-03-05 06:19:00,SystemResetWarning,0825.9,5.00,000.00,020.1,019.3,000.0,028.6,021.9,17.0,0000.0,0010.11,0003.47,0002.74
2024-03-05 06:20:00,SystemResetWarning,0826.0,5.00,000.00,020.1,019.3,000.0,028.6,021.8,16.9,0000.0,0010.07,0003.46,0002.72
2024-03-05 06:21:00,SystemResetWarning,0826.0,5.01,000.00,020.1,019.3,000.0,028.6,021.8,16.9,0000.0,0009.89,0003.48,0002.72
2024-03-05 06:22:00,SystemResetWarning,0826.1,5.00,000.00,020.1,019.3,000.0,028.6,021.8,16.9,0000.0,0010.02,0003.49,0002.69
2024-03-05 06:23:00,SystemResetWarning,0826.0,5.00,000.00,020.1,019.3,000.0,028.6,021.8,16.9,0000.0,0010.27,0003.52,0002.71
2024-03-05 06:24:00,SystemResetWarning,0826.0,5.00,000.00,020.0,019.3,000.0,028.6,021.8,16.9,0000.0,0009.93,0003.50,0002.70
2024-03-05 06:25:00,SystemResetWarning,0826.0,5.00,000.00,020.0,019.3,000.0,028.6,021.8,16.9,0000.0,0009.94,0003.45,0002.66
2024-03-05 06:26:00,SystemResetWarning,0826.2,5.00,000.00,020.0,019.3,000.0,028.6,021.8,16.9,0000.0,0010.28,0003.37,0002.61
2024-03-05 06:27:00,SystemResetWarning,0826.2,5.00,000.00,020.0,019.3,000.0,028.6,021.8,16.9,0000.0,0010.51,0003.34,0002.55
2024-03-05 06:28:00,SystemResetWarning,0826.3,5.00,000.00,020.0,019.2,000.0,028.5,021.8,17.0,0000.0,0010.44,0003.30,0002.49
2024-03-05 06:29:00,SystemResetWarning,0826.2,5.00,000.00,020.0,019.2,000.0,028.5,021.7,17.0,0000.0,0009.73,0003.29,0002.48
2024-03-05 06:30:00,SystemResetWarning,0826.2,5.00,000.00,020.0,019.2,000.0,028.5,021.8,17.0,0000.0,0008.70,0003.27,0002.47
2024-03-05 06:31:00,SystemResetWarning,0826.2,5.00,000.00,020.0,019.2,000.0,028.5,021.7,17.0,0000.0,0008.68,0003.27,0002.48
2024-03-05 06:32:00,SystemResetWarning,0826.1,5.00,000.00,019.9,019.2,000.0,028.5,021.7,17.0,0000.0,0008.76,0003.23,0002.50
2024-03-05 06:33:00,SystemResetWarning,0826.0,4.99,000.00,019.9,019.2,000.0,028.5,021.7,17.1,0000.0,0009.72,0003.23,0002.53
2024-03-05 06:34:00,SystemResetWarning,0826.1,5.00,000.00,019.9,019.2,000.0,028.5,021.7,17.3,0000.0,0009.41,0003.20,0002.51
2024-03-05 06:35:00,SystemResetWarning,0826.2,4.99,000.00,019.9,019.1,000.0,028.5,021.7,17.2,0000.0,0009.52,0003.23,0002.52
2024-03-05 06:36:00,SystemResetWarning,0826.2,5.00,000.00,019.9,019.1,000.0,028.5,021.7,17.2,0000.0,0010.65,0003.30,0002.54
2024-03-05 06:37:00,SystemResetWarning,0826.2,5.01,000.00,019.9,019.1,000.0,028.5,021.7,17.2,0000.0,0010.28,0003.34,0002.60
2024-03-05 06:38:00,SystemResetWarning,0826.2,5.01,000.00,019.9,019.1,000.0,028.5,021.6,17.2,0000.0,0010.25,0003.42,0002.67
2024-03-05 06:39:00,SystemResetWarning,0826.2,5.01,000.00,019.9,019.1,000.0,028.5,021.6,17.2,0000.0,0010.45,0003.46,0002.74
2024-03-05 06:40:00,SystemResetWarning,0826.2,4.99,000.00,019.9,019.1,000.0,028.5,021.7,17.1,0000.0,0010.95,0003.53,0002.80
2024-03-05 06:41:00,SystemResetWarning,0826.3,5.00,000.00,019.9,019.1,000.0,028.5,021.7,16.9,0000.0,0011.26,0003.59,0002.86
2024-03-05 06:42:00,SystemResetWarning,0826.2,5.00,000.00,019.9,019.1,000.0,028.5,021.7,17.0,0000.0,0011.53,0003.66,0002.95
2024-03-05 06:43:00,SystemResetWarning,0826.2,4.99,000.00,019.9,019.1,000.0,028.5,021.7,17.1,0000.0,0011.74,0003.72,0003.02
2024-03-05 06:44:00,SystemResetWarning,0826.2,4.99,000.00,019.9,019.1,000.0,028.5,021.7,17.1,0000.0,0011.01,0003.78,0003.06
2024-03-05 06:45:00,SystemResetWarning,0826.3,5.00,000.00,019.9,019.1,000.0,028.4,021.7,17.1,0000.0,0011.31,0003.85,0003.11
2024-03-05 06:46:00,SystemResetWarning,0826.3,5.01,000.00,019.9,019.1,000.0,028.4,021.7,17.2,0000.0,0011.42,0003.89,0003.14
2024-03-05 06:47:00,SystemResetWarning,0826.3,5.00,000.00,019.9,019.1,000.0,028.4,021.6,17.3,0000.0,0010.98,0003.93,0003.18
2024-03-05 06:48:00,SystemResetWarning,0826.3,5.00,000.00,019.8,019.0,000.0,028.4,021.6,17.3,0000.0,0011.22,0003.97,0003.22
2024-03-05 06:49:00,SystemResetWarning,0826.4,5.01,000.00,019.8,019.0,000.0,028.4,021.6,17.3,0000.0,0011.50,0003.99,0003.24
2024-03-05 06:50:00,SystemResetWarning,0826.4,5.01,000.00,019.8,019.0,000.0,028.4,021.6,17.3,0000.0,0011.31,0004.02,0003.27
2024-03-05 06:51:00,SystemResetWarning,0826.4,4.99,000.00,019.8,019.0,000.0,028.4,021.6,17.3,0000.0,0011.46,0004.04,0003.29
2024-03-05 06:52:00,SystemResetWarning,0826.4,4.99,000.00,019.8,019.0,000.0,028.4,021.5,17.3,0000.0,0011.12,0004.04,0003.31
2024-03-05 06:53:00,SystemResetWarning,0826.4,5.00,000.00,019.8,019.0,000.0,028.4,021.5,17.2,0000.0,0011.43,0004.06,0003.31
2024-03-05 06:54:00,SystemResetWarning,0826.4,5.00,000.00,019.8,019.0,000.0,028.4,021.5,17.0,0000.0,0011.92,0004.07,0003.30
2024-03-05 06:55:00,SystemResetWarning,0826.5,5.01,000.00,019.7,019.0,000.0,028.4,021.5,16.9,0000.0,0011.91,0004.07,0003.31
2024-03-05 06:56:00,SystemResetWarning,0826.5,5.00,000.00,019.7,019.0,000.0,028.4,021.5,16.8,0000.0,0011.79,0004.06,0003.31
2024-03-05 06:57:00,SystemResetWarning,0826.6,5.00,000.00,019.7,018.9,000.0,028.4,021.5,16.6,0000.0,0012.26,0004.02,0003.29
2024-03-05 06:58:00,SystemResetWarning,0826.6,5.00,000.00,019.7,018.9,000.0,028.4,021.5,16.4,0000.0,0012.02,0003.98,0003.29
2024-03-05 06:59:00,SystemResetWarning,0826.6,4.99,000.00,019.7,018.9,000.0,028.3,021.5,16.3,0000.0,0011.70,0003.93,0003.27
